Location: Cosy Dell
(34.2789°N, 117.4537°W)
Time: 20:50:19
(UTC+00:00)

Lacrosse 5 - Pass Details

Date: 14 July 2020
Orbit: 717 x 720 km, 57.0° (Epoch: 11 August)

Event Time Altitude Azimuth Distance (km) Brightness Sun altitude
Exits shadow 06:47:14 15° 51° (NE) 1,857 4.2 -31.8°
Drops below altitude 10° 06:48:09 10° 48° (NE) 2,200 4.6 -31.9°
Sets 06:50:34 0° 44° (NE) 3,123 5.5 -32.0°
